Weather History for Warrensburg, MO

Change the Weather History Date:

Friday, February 28, 2014

  Actual Average (KSZL) Record (KSZL)
Temperature  
Mean Temperature - -  
Max Temperature - 44 °F 73 °F (2006)
Min Temperature - 27 °F 16 °F (2009)
Moisture  
Dew Point -    
Average Humidity    
Maximum Humidity    
Minimum Humidity    
Precipitation  
Precipitation 0.00 in - - ()
Sea Level Pressure  
Sea Level Pressure 29.90 in    
Wind  
Wind Speed 8 mph (SE)    
Max Wind Speed 16 mph    
Max Gust Speed 23 mph    
Visibility 10 miles    
Events Rain    
Averages and records for this station are not official NWS values.
T = Trace of Precipitation, MM = Missing Value Source: NWS Daily Summary

Daily Weather History Graph

Daily Weather History Graph

Search for Another Location

Airport:

Trip Planner

Search our weather history database for the weather conditions in past years. The results will help you decide how hot, cold, wet, or windy it might be!

Date:

Astronomy

Feb. 28, 2014 Rise Set
Actual Time 6:48 AM CST 6:07 PM CST
Civil Twilight 6:22 AM CST 6:33 PM CST
Nautical Twilight 5:51 AM CST 7:04 PM CST
Astronomical Twilight 5:20 AM CST 7:35 PM CST
Moon 6:03 AM CST (2/28) 5:44 PM CST (2/28)
Length of Visible Light 12h 11m
Length of Day
11h 18m
Waning Crescent, 1% of the Moon is Illuminated
Feb 28
Waning Crescent
Mar 1
New
Mar 8
First Quarter
Mar 16
Full
Mar 23
Last Quarter

Hourly Weather History & Observations

Time (CST) Temp. Dew Point Humidity Pressure Visibility Wind Dir Wind Speed Gust Speed Precip Events Conditions
12:15 AM - - N/A% 29.96 in 10.0 mi East 9.2 mph - N/A   Clear
12:35 AM - - N/A% 29.96 in 10.0 mi East 10.4 mph - N/A   Clear
12:55 AM - - N/A% 29.95 in 10.0 mi East 10.4 mph 17.3 mph N/A   Clear
1:15 AM - - N/A% 29.95 in 10.0 mi ENE 10.4 mph - N/A   Clear
1:35 AM - - N/A% 29.94 in 10.0 mi East 9.2 mph - N/A   Clear
1:55 AM - - N/A% 29.93 in 10.0 mi East 9.2 mph - N/A   Clear
2:15 AM - - N/A% 29.93 in 10.0 mi ENE 8.1 mph - N/A   Clear
2:35 AM - - N/A% 29.92 in 10.0 mi ENE 6.9 mph - N/A   Clear
2:55 AM - - N/A% 29.91 in 10.0 mi ENE 6.9 mph - N/A   Clear
3:15 AM - - N/A% 29.90 in 10.0 mi ENE 6.9 mph - N/A   Clear
3:35 AM - - N/A% 29.90 in 10.0 mi ENE 6.9 mph - N/A   Clear
3:55 AM - - N/A% 29.89 in 10.0 mi ENE 6.9 mph - N/A   Clear
4:15 AM - - N/A% 29.89 in 10.0 mi ENE 6.9 mph - N/A   Clear
4:35 AM - - N/A% 29.90 in 10.0 mi ENE 5.8 mph - N/A   Clear
4:55 AM - - N/A% 29.90 in 10.0 mi ENE 4.6 mph - N/A   Clear
5:15 AM - - N/A% 29.89 in 10.0 mi East 6.9 mph - N/A   Clear
5:35 AM - - N/A% 29.89 in 10.0 mi East 5.8 mph - N/A   Clear
5:55 AM - - N/A% 29.88 in 10.0 mi East 4.6 mph - N/A   Clear
6:15 AM - - N/A% 29.88 in 10.0 mi East 5.8 mph - N/A   Clear
6:35 AM - - N/A% 29.88 in 10.0 mi East 6.9 mph - N/A   Clear
6:55 AM - - N/A% 29.88 in 10.0 mi East 8.1 mph - N/A   Clear
7:15 AM - - N/A% 29.87 in 10.0 mi East 8.1 mph 16.1 mph N/A   Clear
7:35 AM - - N/A% 29.87 in 10.0 mi ESE 6.9 mph - N/A   Clear
7:55 AM - - N/A% 29.87 in 10.0 mi East 6.9 mph - N/A   Clear
8:15 AM - - N/A% 29.87 in 10.0 mi ESE 9.2 mph - N/A   Clear
8:35 AM - - N/A% 29.87 in 10.0 mi ESE 10.4 mph - N/A   Clear
8:55 AM - - N/A% 29.88 in 10.0 mi SE 12.7 mph 17.3 mph N/A   Clear
9:15 AM - - N/A% 29.88 in 10.0 mi SE 10.4 mph 18.4 mph N/A   Clear
9:35 AM - - N/A% 29.89 in 10.0 mi SE 13.8 mph - N/A   Scattered Clouds
9:55 AM - - N/A% 29.90 in 10.0 mi SSE 13.8 mph 17.3 mph N/A   Scattered Clouds
10:15 AM - - N/A% 29.90 in 10.0 mi SSE 12.7 mph - N/A   Scattered Clouds
10:35 AM - - N/A% 29.90 in 10.0 mi SSE 15.0 mph 19.6 mph N/A   Scattered Clouds
10:55 AM - - N/A% 29.89 in 10.0 mi SE 15.0 mph 19.6 mph N/A   Scattered Clouds
11:15 AM - - N/A% 29.88 in 10.0 mi SSE 15.0 mph 19.6 mph N/A   Scattered Clouds
11:35 AM - - N/A% 29.88 in 10.0 mi SE 16.1 mph 20.7 mph N/A   Clear
11:55 AM - - N/A% 29.87 in 10.0 mi SSE 12.7 mph - N/A   Clear
12:15 PM - - N/A% 29.87 in 10.0 mi South 12.7 mph 19.6 mph N/A   Clear
12:35 PM - - N/A% 29.86 in 10.0 mi SSE 13.8 mph 19.6 mph N/A   Clear
12:55 PM - - N/A% 29.85 in 10.0 mi SSE 16.1 mph 20.7 mph N/A   Clear
1:15 PM - - N/A% 29.84 in 10.0 mi SSE 15.0 mph 21.9 mph N/A   Clear
1:35 PM - - N/A% 29.83 in 10.0 mi SSE 12.7 mph - N/A   Clear
1:55 PM - - N/A% 29.83 in 10.0 mi South 16.1 mph 23.0 mph N/A   Clear
2:15 PM - - N/A% 29.82 in 10.0 mi SSE 16.1 mph 21.9 mph N/A   Clear
2:35 PM - - N/A% 29.83 in 10.0 mi South 11.5 mph 20.7 mph N/A   Mostly Cloudy
2:55 PM - - N/A% 29.84 in 10.0 mi South 11.5 mph - N/A   Overcast
3:15 PM - - N/A% 29.85 in 10.0 mi South 10.4 mph 18.4 mph N/A   Overcast
3:35 PM - - N/A% 29.85 in 10.0 mi South 11.5 mph - N/A   Overcast
3:55 PM - - N/A% 29.87 in 10.0 mi South 5.8 mph - N/A   Overcast
4:15 PM - - N/A% 29.88 in 10.0 mi South 9.2 mph - N/A   Overcast
4:35 PM - - N/A% 29.88 in 10.0 mi South 8.1 mph - N/A   Overcast
4:55 PM - - N/A% 29.88 in 10.0 mi SSE 5.8 mph - N/A   Overcast
5:15 PM - - N/A% 29.88 in 10.0 mi SSE 5.8 mph - N/A   Overcast
5:35 PM - - N/A% 29.88 in 10.0 mi South 4.6 mph - N/A   Overcast
5:55 PM - - N/A% 29.88 in 10.0 mi Calm Calm - N/A   Drizzle
6:15 PM - - N/A% 29.89 in 10.0 mi Calm Calm - N/A Rain Light Rain
6:35 PM - - N/A% 29.89 in 10.0 mi Calm Calm - N/A   Overcast
6:55 PM - - N/A% 29.90 in 10.0 mi Calm Calm - N/A   Overcast
7:15 PM - - N/A% 29.90 in 10.0 mi ESE 3.5 mph - N/A   Mostly Cloudy
7:35 PM - - N/A% 29.92 in 10.0 mi SSE 3.5 mph - N/A   Scattered Clouds
7:55 PM - - N/A% 29.92 in 10.0 mi SSE 4.6 mph - N/A   Mostly Cloudy
8:15 PM - - N/A% 29.94 in 10.0 mi Calm Calm - N/A   Scattered Clouds
8:55 PM - - N/A% 29.95 in 10.0 mi South 4.6 mph - N/A   Scattered Clouds
9:15 PM - - N/A% 29.95 in 10.0 mi Calm Calm - N/A   Overcast
9:35 PM - - N/A% 29.95 in 10.0 mi SSE 3.5 mph - N/A   Overcast
9:55 PM - - N/A% 29.97 in 10.0 mi SSW 3.5 mph - N/A   Overcast
10:15 PM - - N/A% 29.98 in 10.0 mi Calm Calm - N/A   Overcast
10:35 PM - - N/A% 29.99 in 10.0 mi SSW 4.6 mph - N/A   Overcast
10:55 PM - - N/A% 29.99 in 10.0 mi SSW 3.5 mph - N/A   Overcast
11:15 PM - - N/A% 30.00 in 10.0 mi Calm Calm - N/A   Overcast
11:35 PM - - N/A% 30.01 in 10.0 mi Calm Calm - N/A   Overcast
11:55 PM - - N/A% 30.01 in 10.0 mi Calm Calm - N/A   Overcast